www.pogodaiklimat.ru

Погода и климат >> Архив погоды >> Россия >> Якутия >> Оленек


ПОГОДА в Оленеке

АРХИВ ПОГОДЫ в Оленеке

Время (UTC), дата Ветер
(напр.,м/с)
 
Видим.   Явления Облачность Т
(С)
Тd
(С)
f
(%)
Тe
(С)
Тes
(С)
Комфортность P
(гПа)
Po
(гПа)
Тmin
(С)
Tmax
(С)
R
(мм)
R24
(мм)
S
(см)
06 12.12 З 2 20 км в посл. час снег 10/0
[Ac As Cs]
-21.3 -23.8 80 -27 -27 1012.8 983.2
09 12.12 З 2 20 км 3/0
[Ac As Ci fib]
-21.7 -24.2 80 -28 -28 1015.3 985.6
12 12.12 СЗ 2 н/о н/о -22.9 -25.6 78 -29 -29 1017.1 987.2 -20.8
15 12.12 штиль 0 н/о н/о -25.1 -28.2 75 -25 -25 1017.2 986.9
18 12.12 штиль 0 н/о н/о -27.7 -30.9 74 -28 -28 1016.3 985.8
21 12.12 В 2 н/о н/о -30.5 -33.8 73 -38 -38 опасность
обморожения
1015.0 984.2
00 13.12 В 3 20 км слабый снег 10/4 300 м
[Sc As op]
-29.4 -33.1 70 -39 -39 опасность
обморожения
1012.3 981.7 -31.4 16
03 13.12 В 2 20 км слабый снег 10/6 720 м
[Sc As op]
-26.5 -29.7 74 -33 -33 опасность
обморожения
1008.7 978.6
06 13.12 В 2 20 км в посл. час снег 10/4 300 м
[Sc Ac As Cs]
-24.2 -27.3 75 -31 -31 опасность
обморожения
1005.0 975.3
09 13.12 ЮВ 2 20 км слабый снег 10/0
[As op]
-21.2 -23.7 80 -27 -27 1002.4 973.1
12 13.12 Ю 1 н/о н/о -19.9 -22.4 80 -23 -23 1000.1 971.0 -19.9
15 13.12 Ю 1 н/о н/о -19.1 -21.4 82 -22 -22 998.2 969.2
18 13.12 Ю 1 н/о н/о -18.9 -21.2 82 -22 -22 997.4 968.5
21 13.12 З 1 н/о н/о -19.6 -22.0 81 -23 -23 997.4 968.4
00 14.12 СЗ 1 20 км 10/0
[Ac trans Cs]
-19.6 -22.2 80 -23 -23 997.6 968.6 -20.0 0.3 17
03 14.12 СЗ 1 10 км слабый снег 10/0
[Ac trans Cs]
-19.6 -22.2 80 -23 -23 997.9 968.9
06 14.12 СЗ 1 20 км {снег} 10/0
[Ac trans Cs]
-19.8 -22.4 80 -23 -23 998.2 969.1
09 14.12 СЗ 1 20 км 5/0
[Ci sp]
-20.9 -23.4 80 -24 -24 998.7 969.5
12 14.12 СЗ 1 20 км 5/0
[Ac trans Ci fib]
-22.8 -25.3 80 -26 -26 999.3 969.8 -19.3 0.7
15 14.12 СЗ 1 н/о н/о -23.7 -26.6 77 -27 -27 999.3 969.8
18 14.12 СЗ 1 н/о н/о -25.4 -28.4 76 -29 -29 999.2 969.5
21 14.12 штиль 0 н/о н/о -26.0 -28.9 76 -26 -26 999.2 969.4
00 15.12 СЗ 1 н/о н/о -27.9 -31.1 74 -32 -32 опасность
обморожения
999.2 969.2 -29.1
03 15.12 СЗ 1 н/о н/о -29.5 -32.8 73 -34 -34 опасность
обморожения
999.4 969.1 -30.2
06 15.12 СЗ 1 н/о н/о -31.5 -34.9 72 -36 -36 опасность
обморожения
999.6 969.1
09 15.12 СЗ 1 н/о н/о -31.9 -35.4 71 -36 -36 опасность
обморожения
999.9 969.4
12 15.12 штиль 0 н/о н/о -33.3 -36.9 70 -33 -33 опасность
обморожения
1000.5 969.8 -27.3
15 15.12 СЗ 1 н/о н/о -33.9 -37.5 70 -38 -38 опасность
обморожения
1000.0 969.2
18 15.12 СЗ 1 н/о н/о -34.5 -38.1 70 -39 -39 опасность
обморожения
999.6 968.7
21 15.12 штиль 0 н/о н/о -37.1 -40.8 68 -37 -37 опасность
обморожения
1000.0 968.8
00 16.12 СЗ 1 н/о н/о -35.3 -39.0 69 -40 -40 опасность
обморожения
1000.3 969.3 -37.8
03 16.12 СЗ 1 н/о н/о -36.7 -40.5 68 -42 -42 опасность
обморожения
1001.1 969.9 -38.4
06 16.12 СЗ 1 н/о н/о -36.4 -40.1 68 -41 -41 опасность
обморожения
1001.7 970.5
09 16.12 штиль 0 н/о н/о -37.7 -41.6 67 -38 -38 опасность
обморожения
1002.5 971.2
12 16.12 штиль 0 н/о н/о -38.2 -42.0 67 -38 -38 опасность
обморожения
1002.6 971.2 -35.1
15 16.12 штиль 0 н/о н/о -38.6 -42.5 66 -39 -39 опасность
обморожения
1002.5 971.0
18 16.12 штиль 0 н/о н/о -41.9 -45.9 65 -42 -42 опасность
обморожения
1003.3 971.3
21 16.12 СЗ 1 н/о н/о -40.8 -44.7 66 -46 -46 опасность
обморожения
1003.7 971.9
00 17.12 штиль 0 10 км дымка {снег} 10/0
[Cs]
-42.6 -46.8 63 -43 -43 опасность
обморожения
1004.5 972.5 -42.6 0.2 17
03 17.12 СЗ 1 4000 м дымка 4/0
[Ci fib]
-42.0 -46.1 64 -47 -47 опасность
обморожения
1005.2 973.1 -43.5
06 17.12 СЗ 1 4000 м дымка 4/0
[Ci fib]
-44.5 -48.2 66 -50 -50 опасность
обморожения
1006.4 974.2
09 17.12 СЗ 1 4000 м дымка 4/0
[Ci fib]
-45.4 -50.5 56 -51 -51 опасность
обморожения
1007.9 975.3
12 17.12 З 1 н/о н/о -45.7 -50.3 59 -52 -52 опасность
обморожения
1008.9 976.2 -42.0
15 17.12 СЗ 1 н/о н/о -45.4 -49.6 62 -51 -51 опасность
обморожения
1008.7 976.1
18 17.12 штиль 0 н/о н/о -46.3 -50.5 62 -46 -46 опасность
обморожения
1008.7 976.0
21 17.12 штиль 0 н/о н/о -46.8 -51.0 62 -47 -47 опасность
обморожения
1008.0 975.2
00 18.12 В 1 4000 м дымка ясно -47.7 -51.7 63 -54 -54 опасность
обморожения
1006.9 974.0 -47.8 17
03 18.12 В 1 20 км 3/0
[Ci sp]
-48.8 -53.0 61 -55 -55 опасность
обморожения
1004.7 971.7 -48.8
06 18.12 В 4 20 км 10/0
[Ci sp]
-48.3 -51.7 68 -64 -64 опасность
обморожения
1001.8 969.0
09 18.12 В 4 20 км 10/0
[Ac trans Ci sp]
-43.4 -47.4 64 -58 -58 опасность
обморожения
999.0 967.1
12 18.12 В 4 20 км слабый снег 10/0
[Ac trans Cs]
-37.0 -40.4 70 -50 -50 опасность
обморожения
997.3 966.2 -37.0 0.0
15 18.12 В 2 н/о н/о -34.8 -38.7 67 -43 -43 опасность
обморожения
996.7 965.9
18 18.12 В 2 н/о н/о -34.4 -38.2 68 -43 -43 опасность
обморожения
996.6 965.9
21 18.12 В 2 н/о н/о -34.4 -38.2 68 -43 -43 опасность
обморожения
996.7 965.9
00 19.12 В 2 20 км 3/0
[Ci fib]
-35.2 -38.7 70 -44 -44 опасность
обморожения
996.9 966.0 -37.0 0.9 17
03 19.12 В 3 20 км слабый снег 10/0
[Ac trans Cs]
-35.1 -38.7 69 -46 -46 опасность
обморожения
996.8 966.0

 

Местоположение метеостанции Оленек (Якутия, Россия): широта 68.50 долгота 112.40 высота над уровнем моря 220 м.

В архиве по умолчанию представлена погода в Оленеке за последнюю неделю. Архивные данные за месяц целиком и за предыдущие месяцы, начиная с января 2011 года, Вы можете получить, выбрав интересующий диапазон дат из раскрывающегося списка и нажав кнопку "Ввод!".


*Определитесь, кто Вы:
робот инопланетянин человек

Внимание! Время в таблицах - всемирное. Для получения местного времени необходимо прибавить поправку, которая в Оленеке равна 9 ч.

Смотрите также архив погоды в соседних городах и на ближайших метеорологических станциях:

Погода в Джалинде (Якутия, Россия) (191 км)
Погода в Полярном (Якутия, Россия) (197 км)
Погода в Ярольине (Якутия, Россия) (224 км)
Погода в Сухане (Якутия, Россия) (240 км)
Погода в Шелагонцах (Якутия, Россия) (262 км)
Погода в Айхале (Якутия, Россия) (289 км)
Погода в Эйке (Якутия, Россия) (349 км)
Погода в Саскылахе (Якутия, Россия) (391 км)
Погода в Хабардино (Якутия, Россия) (434 км)
Погода в Джарджане (Якутия, Россия) (470 км)

Пояснения к столбцам:

Ветер - указаны скорость ветра в м/с - средняя за 10 мин, порывы в срок и между сроками (в фигурных скобках) и направление, откуда дует ветер: С - северный, СВ - северо-восточный, В - восточный, ЮВ - юго-восточный, Ю - южный, ЮЗ - юго-западный, З - западный, СЗ - северо-западный.
Видимость - горизонтальная дальность видимости в метрах или километрах. При видимости от 1 до 10 км при отсутствии осадков обычно наблюдается дымка, при ухудшении видимости до 1 км и менее - туман. В сухую погоду видимость может ухудшаться дымом, пылью или мглою.
Явления - указаны атмосферные явления, наблюдавшиеся в срок или в последний час перед сроком; фигурными скобками обозначены явления, наблюдавшиеся между сроками (за 1-3 часа до срока); квадратными скобками обозначены град или гололедные отложения с указанием их диаметра в мм.
Облачность - указаны через наклонную черту общая и нижняя облачность в баллах и высота нижней границы облаков в метрах; квадратными скобками обозначены формы облаков: Ci - перистые, Cs - перисто-слоистые, Cc - перисто-кучевые, Ac - высококучевые, As - высокослоистые, Sc - слоисто-кучевые, Ns - слоисто-дождевые, Cu - кучевые, Cb - кучево-дождевые. Подробнее классификацию облаков см. в Атласе облаков (PDF).
T - Температура воздуха - температура, измеренная на высоте 2 м над землей.
Td - Температура точки росы - температура, при понижении до которой содержащийся в воздухе водяной пар достигнет насыщения.
f - Относительная влажность воздуха - влажноcть воздуха, измеренная на высоте 2 м над землей.
Te - Эффективная температура - температура, которую ощущает одетый по сезону человек в тени. Характеристика душности погоды. При расчете учитывается влияние влажности воздуха и скорости ветра на теплоощущения человека.
Tes - Эффективная температура на солнце - температура, которую ощущает человек, с поправкой на солнечный нагрев. Характеристика знойности погоды. Зависит от высоты солнца над горизонтом, облачности и скорости ветра. Ночью, в пасмурную погоду, а также при ветре 12 м/с и более поправка равна нулю.
P - Атмосферное давление - приведенное к уровню моря атмосферное давление.
Po - Атмосферное давление - измеренное на уровне метеостанции атмосферное давление.
Tmin - Минимальная температура - минимум температуры воздуха на высоте 2 м над землей.
Tmax - Максимальная температура - максимум температуры воздуха на высоте 2 м над землей.
R - Количество осадков - Количество выпавших осадков за период времени, мм. При наведении курсора мыши на число - период времени, за который выпало указанное количество осадков.
R24 - Количество осадков - Количество выпавших осадков за 24 часа, мм.
S - Снежный покров - Высота снежного покрова, см. При наведении курсора мыши на число - состояние снежного покрова и степень покрытия местности в баллах.